Precipitable_Water
0.56 0.48 0.44 0.49 0.51 0.51 0.47 0.44 0.42 0.47 0.48 0.45 0.42 0.42 0.42 0.50 0.55 0.54 0.56 0.58 0.59 0.63 0.70 0.72 0.70 0.69 0.67 0.66 0.62 0.59 0.56 0.58 0.57 0.54 0.52 0.51 0.48 0.48 0.49 0.49 0.48 0.48 0.47 0.44
0.52 0.44 0.52 0.56 0.56 0.51 0.48 0.43 0.41 0.45 0.48 0.45 0.41 0.39 0.42 0.46 0.49 0.54 0.58 0.59 0.62 0.64 0.65 0.68 0.67 0.66 0.64 0.62 0.61 0.58 0.55 0.56 0.56 0.55 0.54 0.51 0.49 0.50 0.51 0.50 0.50 0.50 0.48 0.46
0.49 0.52 0.60 0.54 0.51 0.48 0.46 0.43 0.43 0.42 0.46 0.45 0.40 0.35 0.39 0.44 0.49 0.54 0.59 0.63 0.65 0.63 0.62 0.64 0.64 0.64 0.64 0.62 0.62 0.58 0.56 0.57 0.59 0.56 0.54 0.52 0.52 0.50 0.49 0.49 0.48 0.50 0.49 0.47
0.58 0.63 0.57 0.55 0.52 0.54 0.43 0.53 0.50 0.46 0.43 0.33 0.42 0.24 0.32 0.38 0.41 0.47 0.52 0.56 0.60 0.59 0.59 0.62 0.62 0.61 0.61 0.61 0.62 0.58 0.57 0.55 0.54 0.54 0.51 0.48 0.46 0.45 0.47 0.49 0.51 0.51 0.49 0.46
0.55 0.57 0.56 0.51 0.52 0.60 0.52 0.58 0.53 0.49 0.43 0.37 0.34 0.29 0.28 0.35 0.33 0.38 0.46 0.52 0.56 0.58 0.58 0.59 0.61 0.61 0.61 0.63 0.63 0.59 0.57 0.54 0.53 0.53 0.51 0.49 0.48 0.49 0.52 0.52 0.49 0.49 0.48 0.48
0.57 0.70 0.62 0.57 0.60 0.59 0.60 0.54 0.54 0.52 0.46 0.31 0.35 0.32 0.26 0.30 0.33 0.37 0.41 0.48 0.53 0.55 0.58 0.60 0.64 0.62 0.61 0.64 0.64 0.63 0.58 0.55 0.54 0.54 0.54 0.51 0.51 0.51 0.48 0.48 0.47 0.48 0.48 0.49
0.46 0.44 0.48 0.52 0.47 0.52 0.50 0.47 0.35 0.33 0.33 0.27 0.38 0.34 0.30 0.38 0.40 0.39 0.39 0.44 0.48 0.54 0.56 0.57 0.58 0.58 0.59 0.61 0.64 0.65 0.62 0.58 0.58 0.56 0.55 0.54 0.53 0.51 0.48 0.48 0.48 0.48 0.48 0.48
0.40 0.35 0.47 0.56 0.50 0.45 0.45 0.45 0.34 0.27 0.28 0.30 0.38 0.26 0.29 0.40 0.42 0.43 0.44 0.43 0.45 0.50 0.52 0.53 0.57 0.60 0.61 0.62 0.65 0.67 0.66 0.62 0.62 0.59 0.55 0.54 0.51 0.49 0.49 0.49 0.49 0.50 0.51 0.50
0.42 0.41 0.56 0.55 0.56 0.54 0.44 0.40 0.49 0.39 0.38 0.33 0.32 0.32 0.37 0.40 0.39 0.40 0.41 0.44 0.46 0.46 0.48 0.50 0.53 0.57 0.60 0.64 0.67 0.70 0.68 0.65 0.63 0.60 0.56 0.51 0.50 0.49 0.48 0.50 0.52 0.54 0.53 0.51
0.48 0.34 0.46 0.51 0.53 0.53 0.50 0.51 0.39 0.41 0.28 0.25 0.26 0.28 0.27 0.34 0.36 0.39 0.39 0.41 0.45 0.51 0.54 0.53 0.56 0.59 0.63 0.67 0.69 0.72 0.71 0.67 0.65 0.63 0.57 0.51 0.49 0.50 0.50 0.51 0.53 0.53 0.54 0.50
0.47 0.41 0.37 0.44 0.40 0.39 0.41 0.40 0.42 0.44 0.41 0.31 0.25 0.27 0.40 0.38 0.41 0.41 0.42 0.44 0.45 0.47 0.51 0.56 0.58 0.61 0.64 0.67 0.70 0.72 0.71 0.67 0.66 0.65 0.58 0.52 0.50 0.50 0.50 0.51 0.54 0.52 0.52 0.50
0.44 0.39 0.31 0.35 0.44 0.47 0.47 0.47 0.47 0.36 0.33 0.38 0.36 0.27 0.45 0.44 0.45 0.44 0.43 0.46 0.49 0.51 0.53 0.55 0.60 0.62 0.64 0.66 0.70 0.71 0.70 0.67 0.68 0.68 0.59 0.52 0.50 0.50 0.51 0.52 0.53 0.54 0.50 0.49
0.44 0.36 0.26 0.25 0.36 0.45 0.45 0.48 0.47 0.45 0.42 0.34 0.30 0.27 0.46 0.48 0.49 0.50 0.48 0.49 0.52 0.53 0.53 0.54 0.56 0.58 0.62 0.65 0.67 0.68 0.68 0.69 0.69 0.69 0.57 0.52 0.51 0.50 0.52 0.52 0.53 0.51 0.49 0.48
0.42 0.35 0.30 0.22 0.25 0.31 0.30 0.36 0.39 0.39 0.32 0.32 0.32 0.32 0.36 0.44 0.44 0.48 0.51 0.52 0.54 0.56 0.55 0.55 0.55 0.57 0.61 0.63 0.65 0.65 0.66 0.67 0.70 0.65 0.55 0.54 0.55 0.55 0.52 0.53 0.52 0.50 0.48 0.46
0.33 0.24 0.27 0.26 0.30 0.32 0.28 0.30 0.33 0.36 0.39 0.33 0.34 0.35 0.34 0.38 0.42 0.47 0.52 0.55 0.54 0.56 0.57 0.58 0.58 0.60 0.61 0.62 0.62 0.63 0.64 0.66 0.66 0.60 0.57 0.57 0.59 0.56 0.55 0.55 0.52 0.49 0.47 0.44
0.29 0.21 0.24 0.20 0.22 0.26 0.28 0.27 0.22 0.28 0.33 0.34 0.32 0.35 0.42 0.44 0.47 0.46 0.48 0.50 0.52 0.56 0.58 0.60 0.62 0.62 0.61 0.61 0.61 0.62 0.64 0.64 0.63 0.59 0.60 0.62 0.63 0.57 0.57 0.54 0.49 0.47 0.45 0.40
0.23 0.20 0.18 0.13 0.15 0.18 0.17 0.16 0.21 0.21 0.21 0.28 0.26 0.30 0.36 0.39 0.43 0.46 0.50 0.50 0.50 0.52 0.57 0.59 0.60 0.62 0.63 0.63 0.63 0.61 0.63 0.64 0.61 0.62 0.62 0.64 0.62 0.59 0.58 0.50 0.47 0.45 0.40 0.36
0.19 0.17 0.19 0.15 0.16 0.11 0.13 0.18 0.18 0.17 0.21 0.25 0.28 0.31 0.34 0.38 0.43 0.51 0.54 0.50 0.50 0.54 0.56 0.60 0.60 0.63 0.65 0.65 0.64 0.64 0.64 0.62 0.61 0.61 0.61 0.67 0.62 0.59 0.50 0.45 0.44 0.41 0.37 0.31
0.19 0.19 0.17 0.15 0.14 0.14 0.15 0.14 0.13 0.15 0.18 0.26 0.26 0.31 0.37 0.42 0.47 0.42 0.48 0.51 0.54 0.56 0.55 0.58 0.60 0.64 0.66 0.66 0.66 0.64 0.62 0.64 0.62 0.61 0.66 0.67 0.63 0.52 0.46 0.44 0.42 0.37 0.32 0.26
0.20 0.24 0.23 0.20 0.16 0.13 0.18 0.23 0.26 0.29 0.18 0.26 0.31 0.33 0.33 0.38 0.29 0.33 0.47 0.49 0.53 0.51 0.51 0.54 0.58 0.62 0.65 0.62 0.63 0.63 0.62 0.62 0.63 0.66 0.66 0.64 0.56 0.48 0.44 0.43 0.37 0.33 0.27 0.22
0.09 0.13 0.13 0.15 0.16 0.18 0.20 0.27 0.38 0.21 0.19 0.34 0.37 0.38 0.40 0.37 0.43 0.45 0.49 0.48 0.50 0.48 0.49 0.54 0.56 0.57 0.62 0.65 0.63 0.59 0.62 0.64 0.67 0.67 0.63 0.58 0.51 0.45 0.44 0.37 0.33 0.27 0.23 0.20
0.09 0.10 0.09 0.11 0.13 0.12 0.22 0.27 0.21 0.30 0.36 0.39 0.39 0.40 0.38 0.43 0.44 0.47 0.48 0.46 0.48 0.47 0.47 0.52 0.54 0.55 0.56 0.61 0.62 0.60 0.60 0.66 0.65 0.62 0.58 0.51 0.46 0.43 0.37 0.32 0.27 0.24 0.21 0.18
0.09 0.14 0.16 0.20 0.18 0.23 0.30 0.28 0.31 0.32 0.33 0.33 0.33 0.36 0.37 0.38 0.38 0.41 0.42 0.45 0.46 0.48 0.49 0.50 0.52 0.54 0.56 0.60 0.61 0.58 0.62 0.63 0.60 0.56 0.50 0.45 0.42 0.36 0.32 0.27 0.23 0.21 0.19 0.16
0.15 0.22 0.22 0.25 0.24 0.27 0.28 0.31 0.28 0.33 0.32 0.36 0.37 0.37 0.37 0.34 0.35 0.38 0.38 0.37 0.40 0.45 0.46 0.48 0.48 0.49 0.50 0.54 0.57 0.59 0.60 0.60 0.55 0.50 0.44 0.39 0.34 0.31 0.28 0.25 0.22 0.19 0.16 0.14
0.24 0.27 0.25 0.24 0.22 0.23 0.20 0.21 0.25 0.29 0.36 0.38 0.38 0.37 0.37 0.40 0.39 0.39 0.38 0.37 0.41 0.43 0.46 0.46 0.47 0.49 0.49 0.54 0.57 0.58 0.57 0.54 0.48 0.42 0.36 0.33 0.31 0.27 0.24 0.23 0.20 0.17 0.15 0.13
0.28 0.24 0.22 0.17 0.20 0.20 0.17 0.19 0.26 0.27 0.29 0.35 0.37 0.36 0.39 0.42 0.42 0.42 0.38 0.35 0.38 0.41 0.44 0.45 0.48 0.51 0.54 0.55 0.54 0.54 0.53 0.48 0.38 0.34 0.32 0.30 0.26 0.24 0.22 0.19 0.17 0.18 0.16 0.15
Wind_Speed
20 19 19 20 21 21 20 21 23 23 23 23 26 26 26 27 29 30 30 30 30 30 27 26 25 25 25 26 26 25 25 25 24 24 23 22 21 22 22 22 23 24 25 26
20 22 20 20 20 20 20 21 23 22 22 21 24 26 25 24 27 30 31 32 32 30 29 27 26 26 26 26 26 26 26 27 26 26 25 24 23 23 23 24 24 25 26 27
26 20 16 19 21 21 21 20 21 22 23 23 24 25 25 24 24 28 28 30 30 31 30 29 28 28 27 27 27 27 27 28 28 27 25 24 24 24 24 25 25 26 26 28
27 26 25 24 23 20 23 19 22 21 21 23 19 27 26 24 26 25 27 27 30 31 32 31 30 30 30 29 28 27 27 28 28 27 26 26 25 25 26 26 26 26 27 29
26 23 24 26 26 23 23 20 22 24 24 23 25 25 24 22 24 26 28 28 30 31 33 33 32 31 30 29 28 26 26 27 27 27 27 27 26 26 26 26 26 27 28 29
35 31 28 26 25 25 25 24 27 25 23 29 25 24 29 26 25 25 28 31 32 33 34 33 33 31 31 30 29 27 26 27 27 27 28 28 27 27 26 27 27 28 29 29
29 36 37 35 35 32 30 25 24 23 23 30 23 26 33 27 25 26 26 28 31 33 34 34 35 34 33 32 31 30 28 27 27 27 28 28 28 27 27 28 28 28 29 29
23 23 23 22 26 27 24 28 27 27 25 27 26 30 28 26 27 26 27 28 29 31 33 35 36 36 36 35 33 32 30 29 28 28 28 28 28 28 28 28 29 29 29 30
22 25 25 22 22 22 22 22 28 33 35 32 34 41 40 34 33 30 28 28 29 31 33 35 35 36 35 36 35 33 31 29 29 28 29 28 28 28 28 28 28 29 29 30
23 27 26 25 25 25 24 24 22 22 24 29 30 31 33 28 29 31 31 31 30 29 30 32 34 35 35 36 35 33 32 30 29 29 28 29 29 29 28 28 28 29 30 30
25 26 27 25 23 21 22 23 24 23 25 24 28 29 28 30 30 33 35 34 33 32 31 30 30 31 33 34 35 34 32 30 29 29 29 29 29 29 28 29 29 29 30 29
26 27 29 30 30 29 24 21 23 23 25 26 29 39 28 23 23 24 24 25 26 28 30 31 32 32 33 34 35 34 33 31 31 30 29 29 28 28 29 29 29 29 28 29
25 25 27 28 23 19 19 22 23 24 26 27 27 33 28 31 31 30 28 26 25 26 26 27 29 32 34 35 35 35 33 32 31 30 30 29 29 29 29 28 28 28 28 28
28 29 31 34 32 30 32 32 29 28 29 31 32 38 37 37 37 36 33 31 29 28 29 29 30 31 33 33 34 35 35 35 33 31 31 30 30 30 28 27 28 28 28 28
26 32 32 38 38 36 39 39 37 35 34 30 33 36 42 40 40 39 40 38 37 36 35 34 34 34 34 35 36 36 35 34 33 31 31 30 30 29 27 28 27 27 27 27
28 30 31 40 40 37 38 40 43 39 40 41 42 42 40 43 42 40 38 38 38 40 40 41 40 40 39 38 38 37 36 35 34 32 31 30 29 28 27 26 25 26 26 26
29 28 28 37 40 36 36 45 42 43 44 41 39 42 39 38 39 38 38 38 39 38 40 42 42 41 40 39 39 38 36 34 33 32 31 29 28 27 26 25 24 25 25 26
33 34 29 35 38 36 38 37 41 46 44 39 40 42 42 41 41 38 39 39 37 34 35 36 38 39 39 37 37 37 36 34 33 31 30 29 27 25 24 23 24 24 25 25
32 29 29 29 33 39 38 40 36 32 36 36 34 33 34 36 35 37 37 36 34 35 33 33 33 33 33 35 34 35 35 34 33 31 30 28 27 24 24 24 24 24 24 25
25 28 28 28 29 28 27 29 30 30 32 30 28 29 31 30 30 30 26 27 30 29 29 28 27 28 29 28 29 31 31 32 31 30 28 26 25 25 24 23 23 24 24 24
26 26 31 31 30 31 30 27 25 22 23 24 23 22 23 24 27 27 26 27 25 24 21 20 21 23 25 24 25 24 26 28 28 27 25 24 24 24 23 23 24 24 24 24
23 22 27 29 30 30 24 20 20 20 19 18 22 22 21 21 20 21 21 20 18 19 19 18 18 19 19 20 20 19 21 21 22 22 23 22 22 23 23 24 24 24 24 25
25 23 22 22 23 23 23 25 26 26 27 24 23 23 22 21 21 18 16 15 14 15 16 17 18 17 18 20 21 19 20 20 21 20 20 21 22 22 24 24 23 25 25 25
25 25 25 24 26 25 24 23 23 25 27 25 23 23 23 23 21 19 18 17 16 17 17 16 17 17 17 18 19 20 20 19 20 20 20 21 21 22 23 23 24 24 25 25
23 18 17 21 23 23 22 20 21 20 21 23 25 26 25 25 22 20 18 16 16 17 18 18 18 17 17 18 18 18 19 20 21 20 21 21 22 23 22 23 24 24 25 25
20 22 18 19 18 20 22 22 22 24 23 24 25 27 25 24 22 21 19 17 16 16 16 16 17 16 16 17 18 19 20 19 19 18 19 20 20 21 21 22 22 23 24 25
Wind_Direction
252 252 253 250 250 256 263 265 265 262 258 259 260 259 260 250 248 247 245 244 242 241 243 241 239 239 240 241 242 243 243 245 247 249 253 259 264 271 277 283 289 294 298 301
253 251 252 253 255 257 260 262 266 266 262 252 260 259 259 250 249 246 243 242 241 240 240 239 238 239 241 241 243 244 244 245 246 249 253 259 262 270 276 282 288 292 296 299
246 247 247 249 256 259 258 258 263 261 266 259 264 263 258 257 258 251 248 245 240 238 236 238 240 242 243 243 243 245 245 246 247 248 253 257 264 269 276 281 286 291 295 299
252 249 251 255 256 255 262 258 260 263 265 263 256 271 259 257 257 252 249 244 240 237 238 240 241 243 242 242 244 247 246 245 246 248 251 255 263 268 274 279 285 290 294 298
249 248 248 250 255 257 261 262 265 266 264 268 258 265 263 256 259 255 251 247 242 238 238 240 241 242 238 240 243 245 244 244 246 249 252 257 261 268 272 277 283 288 293 297
252 256 253 253 257 258 263 268 269 264 261 261 258 254 262 256 261 264 257 250 246 243 242 243 243 242 239 240 241 243 244 245 248 251 254 257 261 266 270 277 283 288 291 295
255 253 254 255 261 260 257 261 266 263 254 260 255 256 264 264 263 260 262 256 250 247 244 243 241 240 239 239 239 241 244 246 248 252 255 257 263 264 270 276 282 286 290 294
259 262 248 257 250 253 254 247 249 257 258 265 261 258 260 264 266 267 268 265 257 250 247 245 243 242 240 238 238 239 243 246 250 254 257 261 261 264 271 276 281 286 289 293
263 256 259 257 258 256 257 252 253 257 261 265 260 264 270 269 271 273 270 265 259 255 249 245 243 242 238 237 237 238 240 246 251 255 260 260 261 266 271 276 281 284 288 292
258 264 260 262 264 256 254 256 256 253 260 257 261 264 265 275 274 270 269 269 264 259 254 249 245 242 239 237 236 237 241 245 250 255 258 260 263 267 271 274 280 285 286 290
258 255 262 267 256 263 264 259 258 258 252 261 268 264 274 276 276 276 273 270 263 258 253 249 245 242 237 235 236 238 241 246 249 254 261 261 263 266 270 275 280 284 285 289
259 262 260 258 261 264 256 257 259 253 259 261 265 264 264 277 281 284 284 280 266 257 254 250 247 244 241 237 237 238 242 247 252 257 259 261 262 266 270 276 279 282 285 288
261 259 265 267 257 261 253 250 254 259 258 257 261 264 270 276 277 280 280 280 270 261 255 251 247 244 241 239 239 241 243 249 253 256 257 259 262 266 271 274 277 281 284 288
257 253 255 261 265 268 266 265 264 262 258 262 258 270 272 274 277 275 274 275 271 262 257 254 249 246 243 241 241 244 249 251 252 252 254 259 263 268 268 272 278 280 284 287
259 259 259 262 264 265 266 265 266 262 259 258 268 268 269 272 271 272 272 270 269 263 258 254 251 249 246 245 246 248 249 248 248 248 255 260 264 264 266 274 275 278 283 286
264 262 265 266 266 264 265 265 263 260 260 264 265 266 268 268 269 269 270 267 266 264 260 256 254 250 249 249 249 250 247 245 246 249 256 260 262 259 266 270 271 277 282 286
263 265 268 268 269 271 263 260 263 265 264 263 264 266 269 266 265 267 267 265 265 266 262 256 252 248 249 249 249 247 244 243 244 250 254 258 258 259 262 266 269 276 282 286
264 265 266 270 272 264 265 264 264 264 265 264 267 268 266 265 267 267 265 265 264 263 265 257 253 248 247 249 246 244 242 242 244 249 252 258 252 254 258 264 271 277 281 285
259 263 265 266 264 272 273 269 268 266 266 267 266 270 269 267 265 269 265 262 262 266 263 256 253 246 244 247 244 239 241 241 245 248 252 252 248 251 259 264 270 275 281 286
261 258 259 263 269 271 273 284 272 267 264 267 267 267 264 270 263 264 270 264 262 262 268 257 249 244 239 241 238 238 239 239 246 248 247 246 246 254 258 265 271 278 282 286
265 261 255 260 265 269 269 268 284 261 267 264 265 268 268 262 260 267 272 267 267 261 266 249 241 241 239 237 237 240 235 236 240 241 242 242 249 255 261 268 274 278 283 286
262 263 261 260 260 264 263 258 252 269 268 270 265 265 273 267 269 269 271 267 265 251 248 246 239 236 233 233 232 233 230 235 235 235 239 245 251 259 266 271 275 278 282 287
264 258 262 254 257 259 259 261 270 269 266 267 268 267 273 268 269 267 270 263 260 248 242 241 241 238 236 233 233 235 233 234 234 236 240 249 256 262 268 272 275 279 283 287
263 260 261 259 259 262 267 263 271 271 266 265 266 269 271 266 267 261 259 260 256 249 242 241 240 238 238 237 236 235 235 231 232 243 251 255 259 264 269 273 276 280 284 287
255 261 265 259 261 266 266 262 271 276 274 270 268 270 273 264 260 255 258 257 253 249 243 244 241 239 239 238 235 232 235 240 245 251 257 260 263 265 269 274 278 282 285 289
252 253 250 260 264 262 265 272 270 276 274 276 274 272 271 261 248 247 252 253 249 246 245 245 241 235 234 235 237 238 242 240 243 248 255 260 262 266 270 275 281 284 287 289